Temperature
6 5 5 5 5 5 4 4 4 3 3 4 3 4 4 4 4 4 4 3 3 3 3 3 3 3 3 3 3 3 3 3 3 3 3 3 3 3
5 5 5 4 4 4 4 3 3 3 3 3 3 3 3 3 3 3 3 3 3 3 3 2 3 3 3 3 3 3 3 2 2 2 3 3 3 3
4 4 4 4 4 4 3 3 3 2 2 2 3 3 3 3 3 3 3 3 3 3 2 2 2 2 2 2 2 2 2 2 2 2 2 2 2 2
4 4 4 3 3 3 3 3 2 2 2 2 2 2 2 2 2 2 2 2 2 2 2 2 2 2 2 2 2 2 2 2 2 2 2 2 2 2
4 3 3 3 3 2 2 2 2 2 2 2 2 2 2 2 2 2 2 2 2 2 2 2 2 2 2 2 2 2 2 2 2 1 1 1 1 2
3 3 3 2 2 2 2 2 2 2 2 1 1 1 1 1 1 1 1 2 1 1 1 1 1 1 1 1 1 1 2 2 1 1 1 1 1 1
2 2 2 2 2 2 2 2 2 1 1 1 1 1 1 1 1 1 0 1 1 1 1 1 1 1 1 1 1 1 1 1 1 1 0 0 1 1
2 2 2 2 2 2 1 1 1 1 1 1 0 0 0 0 0 0 -0 -0 -0 1 0 1 1 1 1 1 1 1 1 1 1 0 0 0 -0 0
1 1 1 1 1 1 1 1 1 0 0 0 -0 -0 -0 -0 -0 -0 -0 -0 -0 0 -0 0 0 0 0 0 1 1 1 0 0 -0 -0 -0 -0 -0
1 1 1 1 0 0 0 0 0 0 -0 -0 -0 -0 -1 -1 -1 -1 -1 -1 -0 -0 -1 -1 -0 0 0 0 0 0 -0 -0 -0 -0 -1 -1 -1 -1
0 0 0 0 -0 -0 -0 -0 -0 -0 -0 -1 -1 -1 -1 -1 -1 -1 -1 -1 -1 -1 -1 -1 -1 -0 -0 -0 -0 -0 -0 -0 -1 -1 -1 -1 -1 -1
-0 -0 -0 -0 -0 -1 -1 -1 -1 -1 -1 -1 -1 -1 -1 -1 -1 -1 -1 -2 -2 -2 -1 -1 -1 -1 -1 -1 -1 -1 -1 -1 -1 -1 -1 -1 -1 -1
-1 -1 -1 -1 -1 -1 -1 -1 -1 -1 -1 -1 -1 -1 -1 -1 -1 -1 -2 -2 -2 -2 -2 -2 -2 -2 -2 -2 -1 -1 -1 -1 -1 -1 -1 -1 -1 -2
-1 -1 -1 -1 -1 -1 -1 -1 -2 -2 -2 -2 -1 -1 -1 -1 -1 -2 -2 -2 -2 -2 -2 -2 -2 -2 -2 -2 -2 -1 -1 -1 -1 -1 -1 -2 -2 -2
-1 -2 -2 -2 -2 -2 -2 -2 -2 -2 -2 -2 -2 -2 -2 -2 -2 -2 -2 -2 -2 -2 -2 -2 -2 -2 -2 -2 -2 -1 -1 -1 -2 -2 -2 -2 -2 -2
-2 -2 -2 -2 -2 -2 -2 -2 -2 -2 -2 -2 -2 -2 -2 -2 -2 -2 -2 -2 -2 -2 -2 -2 -2 -2 -2 -2 -2 -1 -2 -2 -2 -2 -2 -2 -2 -2
-3 -3 -3 -3 -3 -3 -3 -3 -3 -3 -3 -3 -3 -3 -3 -3 -3 -3 -2 -2 -2 -2 -2 -2 -2 -2 -2 -2 -2 -2 -2 -2 -2 -2 -2 -2 -2 -2
-3 -3 -3 -3 -4 -4 -4 -3 -3 -3 -3 -3 -3 -3 -3 -3 -3 -3 -3 -3 -3 -3 -2 -2 -2 -2 -2 -2 -2 -2 -2 -2 -2 -3 -3 -3 -2 -2
-4 -4 -4 -4 -4 -4 -4 -4 -4 -4 -4 -4 -4 -4 -3 -3 -3 -3 -3 -3 -3 -3 -3 -3 -2 -2 -3 -3 -3 -3 -3 -3 -3 -3 -3 -3 -3 -3
-4 -4 -4 -4 -4 -4 -4 -4 -4 -4 -4 -4 -4 -4 -4 -4 -3 -3 -3 -3 -3 -3 -3 -3 -3 -3 -3 -3 -3 -3 -3 -3 -3 -3 -3 -3 -3 -3
-4 -4 -4 -5 -5 -5 -5 -5 -4 -4 -4 -4 -4 -4 -4 -4 -4 -4 -4 -4 -4 -3 -3 -3 -3 -3 -3 -3 -3 -3 -3 -3 -3 -3 -3 -3 -3 -3
-5 -5 -5 -5 -5 -5 -5 -5 -5 -5 -5 -5 -4 -4 -4 -4 -4 -4 -4 -4 -4 -4 -3 -3 -3 -3 -3 -3 -3 -3 -3 -3 -3 -3 -4 -4 -4 -4
-5 -5 -5 -5 -5 -5 -5 -5 -5 -5 -5 -5 -5 -5 -4 -4 -4 -4 -4 -4 -4 -4 -3 -3 -3 -3 -3 -3 -3 -3 -3 -3 -3 -3 -3 -4 -4 -4
Wind_Speed
4 4 3 3 3 3 3 3 3 4 5 4 3 3 4 4 6 5 6 10 10 11 11 11 12 12 12 12 12 12 12 12 12 12 13 14 13 12
3 4 3 3 3 2 3 3 3 4 5 4 4 4 4 5 7 6 7 10 10 10 11 11 11 11 11 11 11 11 11 11 11 12 12 13 12 11
4 4 4 3 3 3 3 3 3 3 5 5 4 4 4 5 6 6 6 6 7 10 11 12 11 10 10 10 10 10 10 10 11 11 11 12 12 12
4 4 4 3 3 3 3 3 3 3 4 7 5 4 4 4 5 6 5 6 7 10 11 11 11 11 10 9 9 9 9 8 9 10 10 11 11 11
3 4 4 4 4 3 4 4 3 3 3 5 5 4 4 3 4 5 5 5 6 8 9 9 10 10 9 8 8 7 7 7 8 9 9 10 11 11
2 3 4 4 5 4 3 4 3 3 3 4 5 4 3 3 3 4 5 4 5 6 6 8 9 9 8 8 8 6 6 7 7 8 8 9 9 10
2 2 3 4 5 4 4 3 3 3 3 3 4 4 3 3 3 3 5 6 6 3 4 5 5 5 6 7 7 6 7 6 6 7 7 8 8 9
3 2 2 3 4 4 5 5 4 4 4 4 4 5 5 4 4 4 4 5 5 2 3 5 4 4 5 5 7 7 6 6 7 7 7 7 8 9
3 2 2 2 2 1 2 3 3 4 4 3 4 5 5 5 5 5 5 5 5 4 4 5 3 4 5 6 7 6 6 5 6 6 6 6 7 8
2 3 3 3 2 2 2 2 2 2 3 3 4 5 5 5 5 5 5 5 5 4 2 3 3 4 5 5 5 4 5 6 7 7 6 6 7 7
2 2 3 3 3 2 2 2 2 3 3 4 5 5 6 5 4 2 2 2 4 3 1 2 2 3 3 2 3 4 6 6 7 7 7 7 7 7
2 2 2 2 2 1 1 2 3 3 3 3 4 4 4 4 4 2 2 2 2 3 2 2 2 2 2 2 2 4 4 6 7 7 8 8 7 5
2 2 2 2 1 2 1 2 3 3 2 2 2 2 3 2 2 2 2 2 2 3 3 2 2 2 2 2 3 3 3 4 4 5 7 8 8 6
2 2 2 1 1 1 1 1 2 2 1 1 1 2 2 2 3 3 3 3 3 4 5 3 2 2 2 3 3 3 3 3 3 3 4 6 7 7
1 1 0 1 1 1 1 2 1 1 1 1 2 2 2 2 2 2 3 3 4 4 4 3 2 2 2 2 2 3 3 3 2 2 3 4 4 4
0 1 2 2 2 2 2 2 1 1 1 1 2 2 2 2 2 2 2 3 3 3 4 3 2 2 2 2 2 3 2 2 2 3 3 3 4 4
1 1 1 1 1 1 1 1 1 2 2 2 1 2 2 2 2 2 2 2 2 3 3 4 4 2 2 1 1 2 2 2 2 2 2 3 3 4
2 1 1 1 0 1 1 1 1 2 2 2 2 2 2 2 2 2 2 2 2 3 3 3 3 3 2 1 1 1 2 2 2 2 2 2 3 4
1 1 0 0 0 0 0 1 1 2 2 2 2 2 2 2 2 2 2 2 3 3 3 3 3 2 2 3 3 2 1 2 2 2 2 1 2 4
1 1 0 0 0 0 1 1 1 1 2 2 2 2 2 2 2 2 2 2 3 3 3 3 2 2 1 1 1 2 3 2 1 2 2 2 2 3
0 0 0 0 1 1 1 1 1 1 1 2 2 2 2 2 2 2 2 3 2 2 3 3 3 5 2 0 1 2 3 4 3 1 2 2 2 2
0 0 0 0 1 1 1 1 1 1 1 2 2 2 2 2 2 2 2 2 2 2 3 3 3 3 2 1 2 2 3 4 5 5 4 2 1 1
1 1 0 0 1 1 1 1 1 1 1 1 2 2 2 2 2 1 2 2 2 2 3 3 3 2 2 1 2 2 3 4 3 4 4 6 6 4
Wind_Direction
215 218 221 220 211 213 206 203 214 261 270 273 278 282 307 298 296 300 297 295 295 298 299 301 306 305 302 300 301 303 307 311 315 317 317 314 314 313
214 209 221 222 207 210 208 217 217 230 261 270 269 288 307 305 302 306 295 297 296 298 299 301 303 307 305 303 300 304 305 307 310 313 315 316 317 319
215 205 208 207 208 208 209 211 226 228 255 278 279 286 293 303 312 309 302 300 301 300 300 302 302 306 305 303 299 301 303 305 309 313 316 320 321 323
214 201 206 206 214 210 208 213 225 229 241 268 284 288 285 290 301 299 310 304 302 297 300 301 302 307 304 304 303 301 305 309 317 318 318 320 322 325
217 209 209 203 226 230 217 220 228 240 244 257 276 284 287 298 306 304 303 305 308 305 302 301 303 306 311 311 309 303 308 310 319 323 322 324 325 325
218 212 208 207 218 225 231 228 230 240 248 257 272 286 288 295 301 306 309 308 306 314 310 308 309 311 314 318 316 310 307 312 319 321 324 329 330 330
228 220 215 217 220 227 236 232 226 238 253 264 274 285 290 303 296 299 300 306 302 295 303 308 315 319 321 318 319 320 325 323 321 322 324 330 334 332
231 233 226 231 235 242 258 261 251 243 249 257 271 275 280 277 282 292 300 307 299 301 308 301 308 300 312 317 317 327 334 337 335 329 328 334 339 338
222 227 236 240 260 242 269 286 289 283 268 254 260 267 270 266 275 280 279 286 281 287 300 288 290 289 306 314 316 326 338 345 347 347 345 347 348 346
229 229 227 235 244 238 251 266 276 287 284 272 249 260 265 262 256 267 270 291 293 290 291 282 289 288 308 316 321 342 353 355 357 355 351 348 347 346
256 234 232 229 238 251 249 259 284 295 307 298 295 293 292 291 289 286 289 295 300 291 284 282 290 304 306 303 330 347 351 352 355 355 353 350 348 345
262 248 240 239 240 260 233 246 266 281 295 314 321 321 318 309 312 281 255 262 289 286 282 304 297 327 319 306 320 330 340 342 345 349 353 352 353 353
243 253 244 247 258 272 264 256 276 296 284 289 300 314 325 327 332 334 302 250 260 264 271 296 284 297 287 302 312 315 327 332 339 342 345 349 352 354
237 246 238 241 250 278 292 304 319 327 300 289 299 314 320 322 325 328 315 295 271 266 276 278 262 277 289 301 300 311 320 326 336 333 337 340 345 350
229 216 167 110 55 345 349 354 360 338 291 289 290 296 299 299 316 327 329 325 318 308 296 278 261 270 265 263 278 294 310 318 332 337 338 336 330 334
34 75 75 72 55 28 13 359 357 348 315 290 300 307 322 331 329 330 335 348 350 337 331 321 296 258 252 265 265 288 299 301 322 334 338 336 337 341
122 79 50 42 37 29 22 23 21 15 5 340 332 337 339 341 333 333 336 345 344 332 336 342 340 326 261 242 288 304 317 321 311 325 345 343 336 339
103 96 68 33 29 14 14 11 10 360 345 340 336 337 336 334 334 340 344 344 342 333 330 332 344 354 9 12 328 308 328 331 334 335 343 347 337 337
104 119 144 58 349 16 359 335 331 327 328 334 336 332 328 328 332 339 345 349 343 334 329 334 343 357 7 352 345 360 343 337 345 351 352 352 325 322
106 134 143 180 298 298 311 325 331 334 335 332 331 330 327 322 332 341 345 344 337 334 336 341 341 338 313 290 307 330 347 338 348 355 352 348 333 323
81 108 102 270 293 297 300 309 303 308 320 319 322 325 323 326 333 337 340 341 339 333 336 332 320 326 319 4 26 3 355 360 4 346 340 346 346 354
312 309 324 307 290 292 298 299 300 305 313 311 317 323 321 323 328 334 335 336 334 331 323 321 328 346 16 39 19 2 4 4 12 23 23 12 336 336
287 292 290 276 274 285 288 291 290 295 299 302 312 318 318 319 325 330 329 331 334 336 338 340 350 0 6 10 11 16 17 15 17 20 20 14 14 3
Height
1467 1467 1468 1468 1468 1468 1468 1469 1469 1466 1464 1463 1463 1462 1462 1460 1459 1457 1454 1452 1451 1449 1446 1444 1442 1440 1437 1435 1434 1433 1431 1429 1427 1425 1424 1422 1420 1418
1463 1463 1463 1464 1464 1464 1464 1465 1464 1463 1461 1459 1459 1458 1457 1456 1454 1452 1450 1448 1446 1444 1442 1439 1437 1434 1432 1430 1429 1428 1426 1424 1423 1421 1419 1418 1416 1414
1458 1458 1458 1459 1460 1460 1460 1460 1460 1459 1457 1455 1455 1454 1453 1451 1449 1448 1446 1444 1441 1439 1437 1435 1432 1430 1428 1426 1424 1423 1421 1420 1418 1417 1415 1414 1412 1410
1454 1454 1455 1455 1455 1456 1456 1456 1455 1455 1454 1452 1450 1450 1449 1447 1445 1443 1441 1439 1437 1435 1433 1430 1428 1425 1423 1421 1420 1418 1417 1415 1414 1413 1411 1410 1408 1406
1450 1450 1451 1451 1451 1452 1452 1451 1451 1451 1450 1449 1446 1445 1444 1443 1441 1439 1437 1435 1433 1431 1428 1426 1423 1421 1419 1417 1416 1414 1413 1411 1409 1408 1407 1406 1404 1402
1447 1447 1447 1447 1447 1447 1448 1447 1447 1446 1446 1444 1443 1441 1440 1438 1437 1435 1432 1430 1428 1426 1424 1422 1419 1417 1415 1413 1411 1409 1409 1407 1406 1404 1403 1402 1401 1399
1442 1443 1443 1443 1443 1444 1444 1443 1443 1442 1441 1440 1439 1437 1436 1434 1433 1431 1428 1426 1424 1422 1419 1417 1415 1413 1411 1409 1407 1405 1404 1403 1402 1401 1400 1399 1398 1396
1438 1439 1439 1439 1440 1440 1440 1439 1439 1439 1437 1436 1435 1434 1432 1431 1429 1427 1425 1423 1420 1419 1416 1414 1412 1410 1408 1406 1404 1402 1401 1400 1399 1398 1397 1396 1395 1394
1435 1435 1435 1436 1436 1436 1436 1435 1435 1435 1434 1433 1431 1430 1428 1427 1426 1424 1422 1420 1417 1415 1413 1410 1408 1406 1405 1403 1401 1399 1398 1397 1397 1396 1394 1393 1392 1391
1431 1432 1432 1432 1433 1433 1432 1432 1431 1430 1430 1429 1428 1426 1425 1424 1422 1421 1419 1416 1414 1412 1411 1407 1405 1403 1402 1400 1399 1398 1396 1395 1394 1393 1392 1391 1390 1388
1428 1428 1429 1429 1429 1429 1429 1428 1427 1426 1426 1425 1424 1423 1421 1420 1418 1417 1415 1412 1410 1408 1408 1405 1403 1401 1399 1397 1397 1396 1395 1393 1392 1391 1390 1389 1388 1386
1425 1425 1425 1425 1426 1426 1426 1425 1424 1423 1422 1421 1420 1419 1418 1416 1415 1413 1412 1410 1408 1406 1405 1403 1401 1399 1397 1396 1395 1394 1393 1392 1391 1389 1388 1386 1385 1384
1421 1422 1422 1422 1422 1423 1423 1422 1422 1421 1419 1418 1417 1416 1415 1414 1412 1410 1409 1408 1406 1404 1403 1402 1400 1398 1397 1395 1393 1392 1391 1390 1389 1387 1386 1384 1383 1381
1418 1419 1419 1419 1419 1420 1419 1420 1419 1418 1417 1416 1415 1413 1412 1411 1409 1408 1407 1406 1405 1403 1401 1400 1398 1397 1395 1393 1392 1390 1389 1388 1386 1385 1384 1382 1381 1380
1416 1416 1416 1416 1417 1417 1417 1417 1416 1415 1414 1413 1412 1411 1410 1409 1408 1406 1405 1403 1402 1401 1400 1398 1397 1395 1394 1392 1390 1389 1387 1386 1385 1383 1382 1380 1379 1377
1414 1414 1414 1414 1414 1414 1414 1414 1413 1413 1412 1411 1410 1409 1408 1407 1406 1405 1403 1401 1400 1399 1398 1396 1395 1394 1392 1391 1389 1387 1386 1385 1383 1382 1381 1379 1378 1376
1412 1412 1411 1411 1411 1412 1411 1411 1411 1411 1410 1409 1408 1407 1407 1406 1405 1404 1402 1401 1399 1397 1396 1395 1394 1392 1391 1390 1388 1386 1385 1384 1382 1381 1379 1378 1377 1375
1410 1409 1409 1409 1410 1410 1410 1409 1409 1409 1409 1408 1407 1406 1405 1405 1404 1403 1401 1400 1398 1397 1395 1393 1392 1390 1390 1388 1388 1386 1384 1383 1381 1380 1379 1377 1375 1375
1408 1408 1408 1408 1409 1409 1409 1408 1408 1408 1407 1407 1406 1405 1405 1404 1403 1402 1401 1399 1398 1396 1395 1393 1392 1390 1388 1387 1387 1386 1384 1382 1381 1380 1379 1377 1375 1374
1407 1407 1407 1407 1408 1408 1408 1408 1407 1407 1406 1406 1405 1405 1404 1403 1402 1401 1400 1399 1397 1396 1395 1393 1392 1390 1389 1388 1387 1386 1385 1383 1381 1379 1378 1377 1376 1375
1406 1406 1406 1406 1407 1407 1407 1407 1406 1406 1405 1405 1405 1404 1404 1402 1401 1400 1399 1398 1397 1396 1394 1393 1392 1392 1390 1389 1387 1386 1385 1384 1382 1380 1378 1377 1375 1373
1405 1405 1405 1405 1406 1406 1406 1406 1405 1405 1404 1404 1404 1403 1403 1402 1401 1400 1399 1398 1397 1396 1395 1394 1393 1392 1390 1389 1387 1386 1385 1384 1383 1381 1380 1378 1376 1374
1404 1404 1404 1404 1405 1405 1405 1405 1404 1404 1403 1403 1402 1402 1402 1401 1400 1400 1399 1398 1397 1396 1395 1394 1393 1392 1391 1389 1388 1387 1386 1384 1383 1381 1381 1380 1378 1377